CW5229 Weather Reports


Display with metric or nautical units.
time (UTC)temp
F
wind
direction
speed
MPH
gust
MPH
rain 1hr
in
rain 24hr
in
rain mn
in
humidity
%
barometer
mb
20260504023041 55 242 0.0 2.0 0.00 0.14 0.09 70 1006.1
20260504021545 55 250 0.0 1.0 0.00 0.14 0.09 70 1005.9
20260504020040 55 253 0.0 1.0 0.00 0.14 0.09 69 1005.8
20260504014539 57 252 0.0 1.0 0.00 0.14 0.09 67 1005.5
20260504013041 59 243 0.0 3.0 0.00 0.14 0.09 61 1005.5
20260504011543 60 224 0.0 3.0 0.00 0.14 0.09 61 1005.5
20260504010052 60 238 0.0 3.0 0.00 0.14 0.09 61 1005.6
20260504004545 60 233 0.0 2.0 0.00 0.14 0.09 60 1005.5
20260504003042 62 254 0.0 7.0 0.00 0.14 0.09 57 1005.5
20260504001527 62 217 1.0 5.0 0.00 0.14 0.09 56 1005.5
20260504000012 63 231 1.0 9.0 0.00 0.14 0.09 54 1005.6
20260503234513 63 255 3.0 8.0 0.00 0.14 0.09 54 1005.4
20260503233006 64 175 2.0 8.0 0.00 0.14 0.09 54 1005.6
20260503231505 64 229 3.0 7.0 0.00 0.14 0.09 53 1005.8
20260503230004 65 122 2.0 9.0 0.00 0.14 0.09 52 1006.0
20260503224609 65 203 4.0 12.0 0.00 0.14 0.09 51 1006.1
20260503223112 64 158 2.0 9.0 0.00 0.14 0.09 51 1006.2
20260503221558 64 263 3.0 10.0 0.00 0.14 0.09 51 1006.5
20260503220057 64 176 3.0 15.0 0.00 0.14 0.09 51 1006.4
20260503214557 64 251 7.0 14.0 0.00 0.14 0.09 49 1006.6
20260503213051 63 253 5.0 11.0 0.00 0.14 0.09 50 1007.1
20260503211549 62 111 4.0 14.0 0.00 0.14 0.09 50 1007.4
20260503210047 63 162 4.0 14.0 0.00 0.14 0.09 48 1007.7
20260503204524 64 135 3.0 12.0 0.00 0.14 0.09 50 1007.8
20260503203014 64 203 6.0 15.0 0.00 0.14 0.09 47 1007.8
20260503201510 64 241 6.0 16.0 0.00 0.14 0.09 49 1007.9
20260503200007 63 148 5.0 13.0 0.00 0.14 0.09 51 1008.0
20260503194503 62 241 5.0 13.0 0.00 0.14 0.09 55 1008.5
20260503193108 60 141 2.0 6.0 0.00 0.14 0.09 66 1008.7
20260503191557 58 169 2.0 6.0 0.01 0.14 0.09 70 1009.0
20260503190048 55 152 0.0 5.0 0.03 0.14 0.09 78 1009.4
20260503184544 51 159 0.0 3.0 0.06 0.14 0.09 84 1009.8
20260503183042 49 210 0.0 4.0 0.07 0.14 0.09 84 1010.2
20260503181553 48 155 0.0 3.0 0.07 0.13 0.08 83 1010.8
20260503180041 49 208 0.0 2.0 0.05 0.10 0.05 82 1012.2
20260503174528 50 147 0.0 9.0 0.04 0.08 0.03 80 1012.4
20260503173026 49 113 1.0 3.0 0.05 0.07 0.02 83 1012.6
20260503171524 49 219 1.0 4.0 0.06 0.06 0.01 82 1012.9
20260503150133 55 255 2.0 10.0 0.00 0.00 0.00 59 1013.4
20260503081526 45 238 1.0 6.0 0.00 0.00 0.00 58 1014.6
20260503071550 43 252 0.0 1.0 0.00 0.00 0.00 62 1014.8
20260503054537 43 257 0.0 1.0 0.00 0.00 0.00 66 1015.6
20260503053059 43 207 0.0 2.0 0.00 0.00 0.00 66 1015.7
20260503051557 43 246 0.0 2.0 0.00 0.00 0.00 66 1015.8
20260503050054 43 231 0.0 2.0 0.00 0.00 0.00 67 1015.8
20260503044609 43 247 0.0 1.0 0.00 0.00 0.00 67 1016.0
20260503043056 43 243 0.0 1.0 0.00 0.00 0.00 67 1016.0
20260503041608 43 254 0.0 1.0 0.00 0.00 0.00 67 1016.0
20260503040051 43 238 0.0 1.0 0.00 0.00 0.00 66 1016.1
20260503034545 43 233 0.0 1.0 0.00 0.00 0.00 66 1016.1
20260503033052 43 213 0.0 1.0 0.00 0.00 0.00 67 1016.1
20260503031542 43 233 0.0 1.0 0.00 0.00 0.00 67 1016.2
20260503030040 44 261 0.0 1.0 0.00 0.00 0.00 67 1016.3
20260503024539 43 249 0.0 0.0 0.00 0.00 0.00 68 1016.3